Retour au catalogue

STARLINK-5136

ActifCommunicationsVLEO
NORAD 56414·PAYLOAD·🇺🇸 United States

Lancé May 4, 2023 depuis Cape Canaveral Space Force Station

Loading…

Prochains Passages (prochaines 24 heures)

TLE

FraisSource: CelesTrak SupGP

Époque: Sep 15, 2026, 01:56 UTC

1 56414C 23061AS  26258.08104167 -.00035881  00000+0 -12999-2 0  2588
2 56414  43.0001 197.5230 0001216 266.7089 275.3938 15.27588976    11

Suivez STARLINK-5136 en temps réel avec AllMySat

Download on the App Store